788  
NZUS99 KSGF 262307  
HRRSGF  
 
HOURLY WEATHER  
NATIONAL WEATHER SERVICE SPRINGFIELD MO  
500 PM CST SAT NOV 26 2022  
   
.....SGF CWA...
 
 
 
CITY SKY/WX TMP DP RH WIND PRES REMARKS  
SPRINGFIELD RAIN 49 48 97 E12 29.68F FOG  
JOPLIN LGT RAIN 49 47 93 E15 29.64F FOG  
WEST PLAINS LGT RAIN 48 44 86 E8 29.76F FOG  
ROLLA CLOUDY 50 43 77 E7 29.80F  
OSAGE BEACH CLOUDY 51 44 77 E8 N/A  
BRANSON LGT RAIN 46 46 100 E12 29.69F FOG  
   
.....SURROUNDING SGF CWA...
 
 
 
CITY SKY/WX TMP DP RH WIND PRES REMARKS  
CHANUTE CLOUDY 48 44 86 NE12 29.65F  
PARSONS HVY RAIN 48 45 89 CALM 29.67F FOG  
COFFEYVILLE RAIN 48 47 96 N8 29.63F FOG  
EMPORIA CLOUDY 48 41 76 CALM 29.69F  
GROVE OK LGT RAIN 50 50 100 E9 29.61F FOG  
ROGERS AR RAIN 48 48 100 MISG 29.62F  
SILOAM SPRINGS HVY RAIN 52 52 100 E7 29.62S FOG  
HARRISON AR LGT RAIN 45 44 97 E7 29.67F FOG  
NEAR YELLVILLE LGT RAIN 47 46 97 E7 29.72F FOG  
   
.....KANSAS AND MISSOURI...
 
 
 
CITY SKY/WX TMP DP RH WIND PRES REMARKS  
KANSAS CTY INT CLOUDY 51 40 65 E7 29.76S  
DOWNTOWN KC CLOUDY 51 39 63 NE8 29.75F  
COLUMBIA MOCLDY 53 39 59 E6 29.79F  
SEDALIA MOCLDY 51 39 63 E5 29.78F  
ST JOSEPH CLOUDY 49 39 68 SE3 29.78F  
ST LOUIS CLOUDY 48 40 73 E10 29.85F  
SPIRIT OF STL CLOUDY 47 41 80 E7 29.83F  
KIRKSVILLE MOCLDY 45 29 53 NE6 29.80F  
WICHITA RAIN 47 44 90 NE9 29.69F FOG  
TOPEKA CLOUDY 49 39 68 N6 29.75F  
OLATHE CLOUDY 49 36 61 E6 29.74F  
   
.....TENNESSEE...
 
 
 
CITY SKY/WX TMP DP RH WIND PRES REMARKS  
MEMPHIS LGT RAIN 56 55 97 E18 29.73F  
NASHVILLE CLOUDY 57 49 74 CALM 29.95F  
   
.....ARKANSAS....
 
 
 
CITY SKY/WX TMP DP RH WIND PRES REMARKS  
FAYETTEVILLE HVY RAIN 54 53 97 NE3 29.61F FOG  
FT SMITH LGT RAIN 51 51 100 E7 29.61F FOG  
LITTLE ROCK LGT RAIN 52 49 89 E14 29.66F VSB 1  
   
.....OKLAHOMA....
 
 
 
CITY SKY/WX TMP DP RH WIND PRES REMARKS  
TULSA FOG 50 50 100 N3 29.62F VSB 1  
PONCA CITY LGT RAIN 49 47 93 NE12 29.64F FOG  
MCALESTER CLOUDY 53 52 96 CALM 29.61S  
OKLAHOMA CITY DRIZZLE 47 46 97 NW9 29.62F  
   
.....IOWA.........
 
 
 
CITY SKY/WX TMP DP RH WIND PRES REMARKS  
DES MOINES CLOUDY 50 32 50 S8 29.77F  
QUAD CITIES MOCLDY 50 25 37 S7 29.84F  
   
.....ILLINOIS.....
 
 
 
CITY SKY/WX TMP DP RH WIND PRES REMARKS  
QUINCY MOCLDY 50 28 42 SE7 29.83F  
CHICAGO MOCLDY 51 22 31 S7 29.86F  
 
 
 
CLICK HERE TO GO TO PREVIOUS BULLETINS.

The Nexlab MO Page
The Nexlab KS Page Main Text Page